Time,TemperatureF,DewpointF,PressureIn,WindDirection,WindDirectionDegrees,WindSpeedMPH,WindSpeedGustMPH,Humidity,HourlyPrecipIn,Conditions,Clouds,dailyrainin,SoftwareType,DateUTC
2015-03-27 00:23:00,38.0,27.0,-100.00,North,0,6.0,11.0,66,0.00,,,-99.99,,2015-03-27 04:23:00,
2015-03-27 00:53:00,37.0,26.0,-100.00,NNE,25,7.0,10.0,64,0.00,,,-99.99,,2015-03-27 04:53:00,
2015-03-27 01:52:00,36.0,25.0,-100.00,NNE,30,4.0,8.0,64,0.00,,,-99.99,,2015-03-27 05:52:00,
2015-03-27 02:22:00,36.0,23.0,-100.00,NNE,15,5.0,11.0,59,0.00,,,-99.99,,2015-03-27 06:22:00,
2015-03-27 02:51:00,35.0,23.0,-100.00,NNE,20,8.0,11.0,60,0.00,,,-99.99,,2015-03-27 06:51:00,
2015-03-27 03:01:00,35.0,23.0,-100.00,NNE,20,8.0,11.0,60,0.00,,,-99.99,,2015-03-27 07:01:00,
2015-03-27 03:21:00,35.0,23.0,-100.00,NNE,30,6.0,9.0,61,0.00,,,-99.99,,2015-03-27 07:21:00,
2015-03-27 03:31:00,35.0,23.0,-100.00,NNE,30,6.0,9.0,61,0.00,,,-99.99,,2015-03-27 07:31:00,
2015-03-27 03:51:00,33.0,22.0,-100.00,NNE,15,4.0,7.0,62,0.00,,,-99.99,,2015-03-27 07:51:00,
2015-03-27 04:21:00,33.0,22.0,-100.00,NNE,25,4.0,7.0,62,0.00,,,-99.99,,2015-03-27 08:21:00,
2015-03-27 04:51:00,32.0,22.0,-100.00,NNE,20,3.0,7.0,64,0.00,,,-99.99,,2015-03-27 08:51:00,
2015-03-27 05:21:00,31.0,22.0,-100.00,NNE,25,2.0,5.0,68,0.00,,,-99.99,,2015-03-27 09:21:00,
2015-03-27 05:52:00,32.0,23.0,-100.00,NNE,25,4.0,7.0,70,0.00,,,-99.99,,2015-03-27 09:52:00,
2015-03-27 06:22:00,31.0,24.0,-100.00,NE,35,6.0,10.0,74,0.00,,,-99.99,,2015-03-27 10:22:00,
2015-03-27 06:52:00,31.0,24.0,-100.00,NNE,15,4.0,7.0,78,0.00,,,-99.99,,2015-03-27 10:52:00,
2015-03-27 07:22:00,30.0,25.0,-100.00,NNE,25,3.0,6.0,81,0.00,,,-99.99,,2015-03-27 11:22:00,
2015-03-27 07:52:00,29.0,25.0,-100.00,NE,35,3.0,6.0,83,0.00,,,-99.99,,2015-03-27 11:52:00,
2015-03-27 08:22:00,29.0,25.0,-100.00,NNE,25,2.0,6.0,82,0.00,,,-99.99,,2015-03-27 12:22:00,
2015-03-27 08:51:00,31.0,24.0,-100.00,North,0,4.0,6.0,75,0.00,,,-99.99,,2015-03-27 12:51:00,
2015-03-27 09:21:00,31.0,23.0,-100.00,North,5,9.0,14.0,72,0.00,,,-99.99,,2015-03-27 13:21:00,
2015-03-27 09:51:00,33.0,24.0,-100.00,NNE,30,7.0,12.0,70,0.00,,,-99.99,,2015-03-27 13:51:00,
2015-03-27 10:21:00,32.0,24.0,-100.00,NNE,25,9.0,12.0,70,0.00,,,-99.99,,2015-03-27 14:21:00,
2015-03-27 10:52:00,32.0,24.0,-100.00,North,0,7.0,12.0,71,0.00,,,-99.99,,2015-03-27 14:52:00,
2015-03-27 11:21:00,31.0,24.0,-100.00,NNE,25,9.0,12.0,72,0.00,,,-99.99,,2015-03-27 15:21:00,
2015-03-27 11:52:00,32.0,20.0,-100.00,NNE,15,9.0,15.0,61,0.00,,,-99.99,,2015-03-27 15:52:00,